Hourly Data Report for October 27, 2015

All times are specified in Local Standard Time (LST). Add 1 hour to adjust for Daylight Saving Time where and when it is observed.

EUREKA CLIMATE
NUNAVUT

79°59'21.000" N
85°56'02.000" W
10.00 m
2401199
71613
NEK

Download Data

Hourly Data (October 2015)
Hourly Data Report for October 27, 2015
Temp Definition
°C
Dew Point Temp Definition
°C
Rel Hum Definition
%
Wind Dir Definition
10's deg

Wind Spd Definition
km/h
Visibility Definition
km
Stn Press Definition
kPa
Hmdx Definition


Wind Chill Definition


Weather Definition


TIME
00:00 -29.3 -32.0 77 11 10   100.91   -38 LegendNANA
01:00 -29.3 -32.0 77 12 7   100.96   -36 LegendNANA
02:00 -28.8 -31.3 79 11 5   100.96   -34 LegendNANA
03:00 -28.7 -31.5 77 10 3   100.99   -32 LegendNANA
04:00 -29.4 -32.0 78 11 9   101.03   -38 LegendNANA
05:00 -29.8 -32.5 77 12 7   101.10   -37 LegendNANA
06:00 -28.9 -31.7 77 2 7   101.12   -36 LegendNANA
07:00 -28.5 -31.4 76 2 14   101.11   -39 LegendNANA
08:00 -27.1 -30.0 76 2 16   101.15   -38 LegendNANA
09:00 -28.8 -31.8 75 11 7   101.19   -36 LegendNANA
10:00 -26.3 -29.5 75 2 17   101.22   -38 LegendNANA
11:00 -27.2 -30.7 72 2 13   101.23   -37 LegendNANA
12:00 -29.7 -32.5 77 12 8   101.26   -38 LegendNANA
13:00 -27.7 -29.8 82 6 8   101.28   -35 LegendNANA
14:00 -28.5 -31.1 78 10 13   101.32   -39 LegendNANA
15:00 -30.4 -33.3 76 12 11   101.36   -40 LegendNANA
16:00 -29.4 -32.2 77 10 7   101.38   -37 LegendNANA
17:00 -29.9 -32.7 77 9 11   101.37   -40 LegendNANA
18:00 -31.2 -34.1 76 11 14   101.39   -42 LegendNANA
19:00 -30.4 -33.2 76 11 10   101.42   -40 LegendNANA
20:00 -30.6 -33.6 75 11 9   101.43   -39 LegendNANA
21:00 -31.1 -34.1 75 12 13   101.41   -42 LegendNANA
22:00 -29.6 -32.1 79 11 10   101.39   -39 LegendNANA
23:00 -29.0 -31.5 79 1 3   101.41   -32 LegendNANA

Notes on Data Quality.

Legend

  • E = Estimated
  • M = Missing
  • NA = Not Available
  • ‡ = Partner data that is not subject to review by the National Climate Archives
Date modified: